Location: Newark
(45.2672°N, 1.7656°E)
Time: 23:40:42
(UTC+00:00)

Envisat - Visible Passes

Search period start: 20 October 2019 00:00
Search period end: 30 October 2019 00:00
Orbit: 764 x 766 km, 98.1° (Epoch: 20 October)

Date Brightness Start Highest point End Pass type
(mag) Time Alt. Az. Time Alt. Az. Time Alt. Az.
20 Oct 3.1 17:31:34 10° SSE 17:36:32 59° ENE 17:41:32 10° N visible
20 Oct 5.7 19:12:27 10° SW 19:15:57 19° W 19:19:28 10° NW visible
21 Oct 6.1 05:39:24 10° NE 05:42:46 17° E 05:46:06 10° SE visible
21 Oct 4.5 18:34:09 10° SSW 18:38:52 39° W 18:43:38 10° NNW visible
22 Oct 3.1 17:56:55 10° SSE 18:02:00 83° WSW 18:07:07 10° NNW visible
22 Oct 6.3 19:40:57 10° W 19:41:48 10° W 19:42:39 10° WNW visible
23 Oct 3.2 17:20:28 10° SE 17:25:19 47° ENE 17:30:12 10° N visible
23 Oct 5.4 19:00:34 10° SW 19:04:34 23° W 19:08:36 10° NW visible
24 Oct 6.3 05:28:47 10° ENE 05:31:22 14° E 05:33:55 10° ESE visible
24 Oct 4.0 18:22:39 10° S 18:27:34 48° W 18:32:29 10° NNW visible
25 Oct 2.9 17:45:40 10° SSE 17:50:44 80° ENE 17:55:51 10° N visible
25 Oct 6.1 19:27:56 10° WSW 19:30:23 13° W 19:32:50 10° WNW visible
26 Oct 5.0 18:48:51 10° SSW 18:53:13 29° W 18:57:36 10° NW visible
27 Oct 6.6 05:18:46 10° ENE 05:19:56 11° E 05:21:05 10° E visible
27 Oct 3.6 18:11:15 10° S 18:16:15 61° W 18:21:18 10° NNW visible
28 Oct 3.0 17:34:29 10° SSE 17:39:29 64° ENE 17:44:32 10° N visible
28 Oct 5.8 19:15:43 10° SW 19:18:58 17° W 19:22:15 10° NW visible
29 Oct 6.0 05:42:11 10° NE 05:45:46 19° E 05:49:20 10° SE visible
29 Oct 4.6 18:37:14 10° SSW 18:41:52 35° W 18:46:32 10° NNW visible
